N1LTP Weather Reports


time (UTC)temp
C
wind
direction
speed
KPH
gust
KPH
rain 1hr
cm
rain 24hr
cm
rain mn
cm
humidity
%
barometer
mb
20260904210027 26 302 4.8 16.1 0.00 0.00 0.00 57 1007.1
20260904204526 26 321 1.6 12.9 0.00 0.00 0.00 58 1007.2
20260904203026 26 323 4.8 17.7 0.00 0.00 0.00 56 1007.3
20260904201525 26 320 4.8 14.5 0.00 0.00 0.00 55 1007.3
20260904200029 27 281 1.6 8.0 0.00 0.00 0.00 57 1007.2
20260904194523 27 325 0.0 9.7 0.00 0.00 0.00 57 1007.0
20260904193025 27 311 3.2 14.5 0.00 0.00 0.00 58 1007.1
20260904191521 26 190 0.0 8.0 0.00 0.00 0.00 61 1007.1
20260904190017 26 286 3.2 12.9 0.00 0.00 0.00 65 1007.5
20260904184522 26 301 0.0 9.7 0.00 0.00 0.00 66 1007.4
20260904183017 26 311 1.6 8.0 0.00 0.00 0.00 63 1007.4
20260904181515 26 296 1.6 17.7 0.00 0.00 0.00 62 1007.4
20260904180012 26 302 4.8 12.9 0.00 0.00 0.00 59 1007.3
20260904174512 26 242 3.2 14.5 0.00 0.00 0.00 62 1007.5
20260904173012 26 273 1.6 11.3 0.00 0.00 0.00 61 1007.6
20260904171509 26 254 3.2 14.5 0.00 0.00 0.00 62 1007.7
20260904170006 26 273 3.2 9.7 0.00 0.00 0.00 65 1007.8
20260904164505 26 275 3.2 11.3 0.00 0.00 0.00 65 1007.9
20260904163003 26 270 1.6 11.3 0.00 0.00 0.00 65 1007.9
20260904161603 26 306 1.6 14.5 0.00 0.00 0.00 67 1008.0
20260904160059 26 338 8.0 17.7 0.00 0.00 0.00 65 1008.2
20260904154553 26 224 1.6 14.5 0.00 0.00 0.00 69 1008.3
20260904153100 25 342 3.2 11.3 0.00 0.00 0.00 69 1008.4
20260904151548 25 310 3.2 9.7 0.00 0.00 0.00 71 1008.4
20260904150047 25 281 3.2 16.1 0.00 0.00 0.00 71 1008.5
20260904144542 24 336 1.6 14.5 0.00 0.00 0.00 75 1008.6
20260904143039 23 314 1.6 14.5 0.00 0.00 0.00 78 1008.7
20260904141546 23 200 0.0 4.8 0.00 0.00 0.00 80 1008.8
20260904140032 22 314 0.0 14.5 0.00 0.00 0.00 81 1008.8
20260904134528 21 303 4.8 8.0 0.00 0.00 0.00 85 1008.8
20260904133025 21 305 3.2 9.7 0.00 0.00 0.00 89 1008.9
20260904131523 20 315 0.0 4.8 0.00 0.00 0.00 92 1008.9
20260904130020 20 315 0.0 4.8 0.00 0.00 0.00 93 1009.1
20260904124517 20 76 0.0 3.2 0.00 0.00 0.00 93 1009.0
20260904123015 18 76 0.0 0.0 0.00 0.00 0.00 93 1009.0
20260904121518 18 76 0.0 0.0 0.00 0.00 0.00 93 1009.0
20260904120016 17 76 0.0 0.0 0.00 0.00 0.00 92 1009.1
20260904114527 17 76 0.0 0.0 0.00 0.10 0.00 92 1009.1
20260904113012 17 76 0.0 0.0 0.00 0.10 0.00 91 1009.0
20260904111511 17 76 0.0 0.0 0.00 0.10 0.00 91 1009.1
20260904110021 17 76 0.0 0.0 0.00 0.10 0.00 91 1009.1
20260904104510 17 76 0.0 0.0 0.00 0.15 0.00 91 1009.1
20260904103009 17 76 0.0 0.0 0.00 0.15 0.00 91 1008.9
20260904101516 17 76 0.0 0.0 0.00 0.15 0.00 91 1008.9
20260904100007 17 76 0.0 0.0 0.00 0.15 0.00 91 1008.7
20260904094507 17 76 0.0 0.0 0.00 0.36 0.00 91 1008.6
20260904093007 17 76 0.0 0.0 0.00 0.36 0.00 91 1008.7
20260904091506 17 76 0.0 0.0 0.00 0.36 0.00 91 1008.7
20260904090005 17 76 0.0 0.0 0.00 0.36 0.00 91 1008.6
20260904084504 17 76 0.0 0.0 0.00 0.58 0.00 91 1008.5
20260904083003 17 76 0.0 0.0 0.00 0.58 0.00 91 1008.8
20260904081505 17 76 0.0 0.0 0.00 0.58 0.00 91 1008.9
20260904080002 17 76 0.0 0.0 0.00 0.58 0.00 91 1008.8
20260904074634 17 76 0.0 0.0 0.00 0.58 0.00 91 1008.8
20260904073057 18 76 0.0 0.0 0.00 0.58 0.00 91 1009.2
20260904071555 17 76 0.0 0.0 0.00 0.58 0.00 90 1009.3
20260904070054 17 76 0.0 0.0 0.00 0.58 0.00 90 1009.5
20260904064553 17 76 0.0 0.0 0.00 0.58 0.00 90 1009.5
20260904063107 18 76 0.0 0.0 0.00 0.58 0.00 90 1009.4
20260904061559 18 76 0.0 0.0 0.00 0.58 0.00 90 1009.6
20260904060109 18 76 0.0 0.0 0.00 0.58 0.00 90 1009.6
20260904054548 18 76 0.0 0.0 0.00 0.58 0.00 90 1009.7
20260904053046 18 76 0.0 0.0 0.00 0.58 0.00 90 1009.9
20260904051546 18 76 0.0 0.0 0.00 0.58 0.00 90 1010.0
20260904050043 18 76 0.0 0.0 0.00 0.58 0.00 90 1010.1
20260904044548 18 76 0.0 0.0 0.00 0.58 0.00 90 1010.4
20260904043040 19 76 0.0 0.0 0.00 0.58 0.00 90 1010.6
20260904041536 19 76 0.0 0.0 0.00 0.58 0.00 90 1010.5
20260904040034 19 76 0.0 0.0 0.00 0.58 0.00 89 1010.7
20260904034536 19 76 0.0 0.0 0.00 0.58 0.58 89 1010.6
20260904033036 20 76 0.0 0.0 0.00 0.58 0.58 90 1010.8
20260904031532 20 76 0.0 0.0 0.00 0.58 0.58 89 1010.7
20260904030032 20 76 0.0 0.0 0.00 0.58 0.58 89 1010.7
20260904024532 20 76 0.0 0.0 0.00 0.58 0.58 89 1010.8
20260904023031 20 76 0.0 0.0 0.00 0.58 0.58 89 1011.1
20260904021533 20 76 0.0 0.0 0.00 0.58 0.58 89 1011.1
20260904020030 20 76 0.0 0.0 0.00 0.58 0.58 89 1011.2
20260904014530 21 76 0.0 0.0 0.00 0.58 0.58 89 1011.2
20260904013033 21 76 0.0 0.0 0.00 0.58 0.58 89 1011.5
20260904011537 21 76 0.0 0.0 0.00 0.58 0.58 88 1011.5
20260904010043 21 76 0.0 0.0 0.00 0.58 0.58 88 1011.4
20260904004531 21 76 0.0 0.0 0.00 0.58 0.58 87 1011.3
20260904003029 21 76 0.0 0.0 0.00 0.58 0.58 87 1011.0
20260904001526 22 76 0.0 0.0 0.00 0.58 0.58 87 1011.0
20260904000026 22 76 0.0 0.0 0.00 0.58 0.58 87 1010.6
20260903234533 22 76 0.0 0.0 0.00 0.58 0.58 86 1010.9
20260903233025 22 76 0.0 0.0 0.00 0.58 0.58 86 1010.7
20260903231525 23 76 0.0 0.0 0.00 0.58 0.58 86 1010.8
20260903230025 23 76 0.0 0.0 0.00 0.58 0.58 85 1010.4
20260903224526 23 76 0.0 1.6 0.00 0.58 0.58 85 1010.7
20260903223026 23 76 0.0 4.8 0.00 0.58 0.58 85 1010.7
20260903221521 23 76 0.0 3.2 0.00 0.58 0.58 84 1011.0
20260903220021 24 76 0.0 3.2 0.00 0.58 0.58 84 1010.9
20260903214518 24 76 0.0 0.0 0.00 0.58 0.58 84 1010.7
20260903213027 24 76 0.0 1.6 0.00 0.58 0.58 84 1010.6
20260903211547 24 76 1.6 6.4 0.00 0.58 0.58 83 1010.7